{"data":{"norad_id":53410,"epoch":"2026-09-20T04:00:03.000096Z","epoch_age_seconds":104208,"freshness":"FRESH","line1":"1 53410U 22097Y   26263.16670139  .00051213  00000+0  21925-2 0  9997","line2":"2 53410  53.1596 319.2111 0001816  98.3812  35.6223 15.22323017  5786","mean_motion":15.22323017,"eccentricity":0.0001816,"inclination_deg":53.1596,"raan_deg":319.2111,"arg_perigee_deg":98.3812,"mean_anomaly_deg":35.6223,"bstar":0.0021925,"rev_number":578,"period_min":94.592276666602,"perigee_km":497.58681777891,"apogee_km":500.08453425484,"semimajor_km":6876.9726760169,"source":"CELESTRAK","updated_at":"2026-09-20T09:00:40.227332Z"}}